Location: Aciu?a
(46.2833°N, 22.4500°E)
Time: 13:29:55
(UTC+00:00)

Cosmos 405 Rocket - Pass Details

Date: 25 October 2021
Orbit: 488 x 551 km, 81.3° (Epoch: 07 December)

Event Time Altitude Azimuth Distance (km) Brightness Sun altitude
Rises 16:30:24 0° 342° (NNW) 2,708 6.5 -11.7°
Reaches altitude 10° 16:32:38 10° 335° (NNW) 1,819 5.7 -12.0°
Maximum altitude 16:36:24 40° 265° (W) 825 4.4 -12.7°
Drops below altitude 10° 16:40:10 10° 196° (SSW) 1,823 5.7 -13.3°
Sets 16:42:25 0° 189° (S) 2,714 6.5 -13.7°
